Air Quality Table

TIMESTAMP NO2 SO2 O3 PM10 PM2.5 CO TEMP HUM WS WD NO
2022-01-24 18:00 2.32 µg/m3 0.52 µg/m3 81.86 µg/m3 3.2 µg/m3 N/A 0.18 mg/m3 10.92 °C 71.64 % 4.49 m/s 240.69 Deg 0.07 µg/m3
2022-01-24 17:00 2.17 µg/m3 0.53 µg/m3 86.54 µg/m3 3.36 µg/m3 N/A 0.18 mg/m3 11.25 °C 65.33 % 5.2 m/s 300.37 Deg 0.05 µg/m3
2022-01-24 16:00 1.36 µg/m3 0.45 µg/m3 86.59 µg/m3 4.14 µg/m3 N/A 0.18 mg/m3 11.4 °C 66.52 % 6.08 m/s 257.26 Deg 0.07 µg/m3
2022-01-24 15:00 1.12 µg/m3 0.42 µg/m3 87.59 µg/m3 2.56 µg/m3 N/A 0.17 mg/m3 11.56 °C 66.94 % 5.92 m/s 237.24 Deg 0.08 µg/m3
2022-01-24 14:00 10.09 µg/m3 0.48 µg/m3 87.22 µg/m3 2.8 µg/m3 N/A 0.17 mg/m3 11.59 °C 68 % 5.88 m/s 214.41 Deg 1.97 µg/m3
2022-01-24 13:00 1.21 µg/m3 0.53 µg/m3 88.98 µg/m3 2.57 µg/m3 N/A 0.17 mg/m3 12.01 °C 66.82 % 5.87 m/s 229.41 Deg 0.14 µg/m3
2022-01-24 12:00 1.58 µg/m3 0.59 µg/m3 87.17 µg/m3 2.22 µg/m3 N/A 0.18 mg/m3 11.87 °C 63.78 % 6.18 m/s 181.08 Deg 0.24 µg/m3
2022-01-24 11:00 0.91 µg/m3 0.56 µg/m3 84.07 µg/m3 4.07 µg/m3 N/A 0.17 mg/m3 11.79 °C 60.63 % 6.14 m/s 261.21 Deg 0.11 µg/m3
2022-01-24 10:00 1.01 µg/m3 0.62 µg/m3 83.93 µg/m3 2.7 µg/m3 N/A 0.18 mg/m3 11.54 °C 61.78 % 6.14 m/s 206.65 Deg 0.11 µg/m3
2022-01-24 09:00 1.24 µg/m3 0.7 µg/m3 81.07 µg/m3 1.79 µg/m3 N/A 0.18 mg/m3 10.86 °C 62.79 % 4.95 m/s 266.88 Deg 0.11 µg/m3
2022-01-24 08:00 3.95 µg/m3 0.93 µg/m3 79.03 µg/m3 2.57 µg/m3 N/A 0.17 mg/m3 10.43 °C 59.86 % 4.45 m/s 286.79 Deg 0.09 µg/m3
2022-01-24 07:00 1.65 µg/m3 1.06 µg/m3 83.64 µg/m3 4.11 µg/m3 N/A 0.18 mg/m3 10.29 °C 61.31 % 3.72 m/s 287.3 Deg 0.03 µg/m3
2022-01-24 06:00 3.99 µg/m3 1.5 µg/m3 81.66 µg/m3 4.66 µg/m3 N/A 0.18 mg/m3 10.27 °C 62.92 % 3.41 m/s 310.33 Deg 0.02 µg/m3
2022-01-24 05:00 2.33 µg/m3 1.27 µg/m3 82.83 µg/m3 4.29 µg/m3 N/A 0.18 mg/m3 10.14 °C 61.69 % 3.58 m/s 229.66 Deg 0.04 µg/m3
2022-01-24 04:00 2.48 µg/m3 1.37 µg/m3 79.76 µg/m3 4.07 µg/m3 N/A 0.14 mg/m3 9.78 °C 64.59 % 2.74 m/s 249.67 Deg 0.04 µg/m3
2022-01-24 03:00 2.87 µg/m3 1.3 µg/m3 80.99 µg/m3 3.12 µg/m3 N/A 0.18 mg/m3 9.75 °C 65.32 % 3.75 m/s 100.01 Deg 0.06 µg/m3
2022-01-24 02:00 2.1 µg/m3 0.86 µg/m3 83.02 µg/m3 2.37 µg/m3 N/A 0.18 mg/m3 9.67 °C 70.08 % 3.22 m/s 132.68 Deg 0.04 µg/m3
2022-01-24 01:00 2.26 µg/m3 0.73 µg/m3 86.07 µg/m3 2.7 µg/m3 N/A 0.18 mg/m3 9.8 °C 71.16 % 3.4 m/s 123.95 Deg 0.04 µg/m3
2022-01-24 00:00 3.38 µg/m3 0.68 µg/m3 86.2 µg/m3 3.82 µg/m3 N/A 0.18 mg/m3 10.32 °C 69.25 % 4.12 m/s 193.13 Deg 0.04 µg/m3
2022-01-23 23:00 2.73 µg/m3 0.63 µg/m3 87.06 µg/m3 2.56 µg/m3 N/A 0.18 mg/m3 10.96 °C 59.86 % 3.67 m/s 193.69 Deg 0.03 µg/m3
2022-01-23 22:00 2.83 µg/m3 0.67 µg/m3 88.78 µg/m3 2.4 µg/m3 N/A 0.18 mg/m3 11.45 °C 59.13 % 4.41 m/s 221.07 Deg 0.03 µg/m3
2022-01-23 21:00 1.34 µg/m3 0.48 µg/m3 91.69 µg/m3 2.94 µg/m3 N/A 0.18 mg/m3 11.48 °C 58.85 % 3.16 m/s 285.55 Deg 0.02 µg/m3
2022-01-23 20:00 1.59 µg/m3 0.53 µg/m3 92.25 µg/m3 2.33 µg/m3 N/A 0.18 mg/m3 11.46 °C 59.11 % 4.06 m/s 268.35 Deg 0.02 µg/m3

It is to be noted that the data is provisional and subject to quality assurance procedures. For validated data kindly refer your request to contact.air@era.org.mt